[[{"header":{"parameterUnit":"m.s-1","parameterCategory":1,"la1":30.2991,"la2":30.254,"lo1":-89.0895,"lo2":-89.0444,"dy":0.0017,"dx":0.0017,"nx":28,"ny":28,"refTime":"2024-08-27T09:00:00:Z","depth":0,"parameterNumber":2,"parameterNumberName":"U-component_of_WINDS"},"data":[0,0,0,0,0,0,0,0,0,0,0,0,0,0,0,0,0,0,0,0,0,0,0,0,0,0,0,0,0,0,0,0,0,0,0,0,0,0,0,0,0,0,0,0,0,0,0,0,0,0,0,0,0,0,0,0,0,0,-3.6416,-3.6416,0,-3.6457,-3.6457,-3.6457,-3.6349,-3.6346,-3.6343,-3.6339,-3.638,-3.6384,-3.6388,0,0,0,0,0,0,0,0,0,0,0,0,0,-3.6241,-3.6245,-3.6416,-3.6416,-3.6417,-3.6456,-3.6457,-3.6458,-3.635,-3.6346,-3.6342,-3.6338,-3.6378,-3.6383,-3.6388,0,0,0,0,0,0,0,0,0,0,0,0,0,-3.6303,-3.6246,-3.6415,-3.6368,-3.6364,-3.6456,-3.6457,-3.6458,-3.6351,-3.6346,-3.6341,-3.6336,-3.6377,-3.6383,-3.6389,-3.6529,0,0,-3.6408,-3.6411,0,0,0,0,0,0,0,0,-3.63,-3.631,-3.6374,-3.6371,-3.6367,-3.6393,-3.641,-3.6482,-3.6352,-3.6356,-3.6339,-3.6333,-3.6388,-3.6393,-3.6412,-3.6531,-3.6533,-3.6409,-3.6413,-3.6416,-3.6417,0,0,0,0,0,0,0,-3.6296,-3.6307,-3.6432,-3.6375,-3.6371,-3.6343,-3.6347,-3.6423,-3.64,-3.6355,-3.6347,-3.6354,-3.6385,-3.6406,-3.6412,-3.6533,-3.6409,-3.6414,-3.6418,-3.6421,-3.6768,-3.6773,0,0,0,0,0,0,-3.6298,-3.6305,-3.643,-3.6433,-3.632,-3.6351,-3.6354,-3.6389,-3.6399,-3.6395,-3.6358,-3.6348,-3.6398,-3.6405,-3.6413,-3.6576,-3.6415,-3.6421,-3.6425,-3.6762,-3.6769,-3.6775,0,0,0,0,0,0,-3.6295,-3.631,-3.6429,-3.6367,-3.638,-3.6359,-3.64,-3.6393,-3.6414,-3.6401,-3.6396,-3.6384,-3.6394,-3.6404,-3.6501,-3.6576,-3.6424,-3.643,-3.6756,-3.6764,-3.6772,-3.6904,0,0,0,0,0,0,-3.629,-3.631,-3.6363,-3.6369,-3.6383,-3.6517,-3.6404,-3.6397,-3.6425,-3.6413,-3.6424,-3.6421,-3.6391,-3.6492,-3.6507,-3.6582,-3.6435,-3.6749,-3.676,-3.6769,-3.6893,-3.6915,-3.6935,0,0,0,0,0,-3.6284,-3.6399,-3.6367,-3.6382,-3.645,-3.6521,-3.653,-3.6493,-3.6432,-3.6485,-3.6476,-3.642,-3.6566,-3.6503,-3.6519,-3.6596,-3.6744,-3.6757,-3.6768,-3.6883,-3.6911,-3.6934,0,0,0,0,0,0,-3.6402,-3.6399,-3.6363,-3.6483,-3.6503,-3.6503,-3.6569,-3.6525,-3.6562,-3.655,-3.6503,-3.6506,-3.6611,-3.6613,-3.6544,-3.6732,-3.6644,-3.666,-3.6726,-3.6752,-3.6773,-3.6769,-3.644,0,0,0,0,0,-3.6443,-3.6502,-3.6495,-3.6601,-3.6614,-3.659,-3.662,-3.659,-3.6609,-3.6617,-3.6615,-3.6636,-3.6685,-3.6719,-3.6765,-3.6893,-3.6893,-3.6954,-3.6976,-3.6993,-3.7007,-3.7073,-3.7099,-3.6815,-3.6815,-3.6814,0,0,-3.6526,-3.6531,-3.6571,-3.6625,-3.6637,-3.6698,-3.6598,-3.6667,-3.6711,-3.6627,-3.6718,-3.6718,-3.6737,-3.685,-3.6899,-3.6855,-3.7086,-3.7009,-3.7023,-3.7027,-3.7088,-3.7115,-3.7139,-3.6823,-3.6821,-3.682,0,0,-3.6708,-3.6719,-3.6808,-3.6822,-3.6842,-3.6826,-3.6848,-3.6854,-3.6851,-3.6941,-3.6879,-3.6931,-3.7019,-3.7034,-3.7054,-3.7242,-3.7191,-3.7258,-3.7368,-3.7433,-3.7455,-3.7475,-3.754,-3.7564,-3.7272,-3.7273,-3.7273,0,-3.6808,-3.6898,-3.6859,-3.6932,-3.6957,-3.6885,-3.6973,-3.6989,-3.7023,-3.7042,-3.6992,-3.7099,-3.7107,-3.7222,-3.7268,-3.7287,-3.7308,-3.7256,-3.7455,-3.7475,-3.7492,-3.7553,-3.7578,-3.728,-3.728,-3.7279,-3.7278,0,-3.702,-3.7083,-3.7152,-3.7187,-3.722,-3.7301,-3.7273,-3.7311,-3.7279,-3.7267,-3.7359,-3.7367,-3.7411,-3.7437,-3.7406,-3.7547,-3.7518,-3.7463,-3.7374,-3.7528,-3.7584,-3.7608,-3.7292,-3.7289,-3.7287,-3.7285,0,0,-3.7276,-3.7288,-3.7314,-3.7328,-3.7345,-3.7393,-3.747,-3.7514,-3.7546,-3.7573,-3.7635,-3.7711,-3.7659,-3.7681,-3.7652,-3.7709,-3.7855,-3.7646,-3.7646,-3.7683,-3.8008,-3.8048,-3.8076,-3.7823,-3.7827,-3.783,-3.8005,0,-3.7453,-3.7586,-3.7553,-3.7684,-3.7741,-3.7673,-3.774,-3.7757,-3.7749,-3.7795,-3.7785,-3.7839,-3.7768,-3.7781,-3.7835,-3.7826,-3.7919,-3.7813,-3.7878,-3.7881,-3.7873,-3.8105,-3.8148,-3.8313,-3.8028,-3.8031,-3.8034,0,-3.7678,-3.7713,-3.785,-3.7856,-3.7879,-3.794,-3.7977,-3.8023,-3.8041,-3.803,-3.8055,-3.8014,-3.8089,-3.8001,-3.8102,-3.8031,-3.8056,-3.8055,-3.8061,-3.8063,-3.7965,-3.8112,-3.8365,-3.8388,-3.8069,-3.8066,-3.8064,0,-3.7848,-3.793,-3.8021,-3.8036,-3.8047,-3.8091,-3.8097,-3.811,-3.8138,-3.8171,-3.8188,-3.8229,-3.8251,-3.8283,-3.8254,-3.8193,-3.8359,-3.8269,-3.8351,-3.8352,-3.8387,-3.8384,-3.8644,-3.8408,-3.8407,-3.8407,-3.8406,0,-3.8049,-3.8135,-3.8098,-3.8154,-3.8248,-3.8209,-3.8302,-3.8301,-3.8313,-3.8366,-3.8311,-3.8363,-3.8322,-3.837,-3.8347,-3.8433,-3.8444,-3.8437,-3.8429,-3.844,-3.8441,-3.8454,-3.8441,-3.8413,-3.8412,-3.841,-3.8409,0,-3.8253,-3.8233,-3.8328,-3.833,-3.8333,-3.8402,-3.8403,-3.8454,-3.8442,-3.8511,-3.8525,-3.8506,-3.8559,-3.8533,-3.8589,-3.8574,-3.8684,-3.8663,-3.8678,-3.8671,-3.8753,-3.8745,-3.9029,-3.9063,-3.8807,-3.8809,-3.8811,0,-3.8381,-3.8446,-3.8455,-3.8488,-3.8498,-3.8551,-3.8579,-3.8544,-3.8576,-3.86,-3.8649,-3.8697,-3.8734,-3.8822,-3.8812,-3.8854,-3.8831,-3.8928,-3.8837,-3.8846,-3.883,-3.8825,-3.883,-3.8945,-3.8948,-3.8951,-3.8953,0,-3.861,-3.8596,-3.864,-3.868,-3.8716,-3.8746,-3.8771,-3.88,-3.8765,-3.8804,-3.8858,-3.8886,-3.8943,-3.8991,-3.9028,-3.9033,-3.8987,-3.8982,-3.9002,-3.9013,-3.9018,-3.9014,-3.8725,-3.8975,-3.8973,-3.8971,-3.897,-3.8969,-3.8778,-3.8831,-3.8846,-3.8896,-3.8912,-3.8936,-3.8984,-3.8978,-3.9023,-3.9066,-3.9043,-3.9105,-3.912,-3.9164,-3.9176,-3.9223,-3.9185,-3.9215,-3.9223,-3.923,-3.924,-3.9013,-3.923,-3.923,-3.9229,-3.9228,-3.9228,0,-3.9001,-3.9008,-3.9054,-3.9091,-3.913,-3.9085,-3.911,-3.9145,-3.9201,-3.922,-3.9257,-3.9318,-3.9365,-3.9359,-3.9401,-3.944,-3.942,-3.9452,-3.9448,-3.9449,-3.9273,-3.925,-3.9468,-3.9468,-3.9468,-3.9468,-3.9468,-3.9468,-3.9122,-3.9209,-3.9197,-3.9291,-3.9296,-3.9357,-3.9375,-3.9397,-3.9411,-3.9482,-3.9521,-3.9517,-3.9525,-3.9568,-3.9608,-3.9605,-3.9622,-3.9661,-3.9651,-3.9486,-3.9462,-3.9439,-3.9417,-3.9666,-3.9666,-3.9822,-3.9823,-3.9824]},{"header":{"parameterUnit":"m.s-1","parameterCategory":1,"la1":30.2991,"la2":30.254,"lo1":-89.0895,"lo2":-89.0444,"dy":0.0017,"dx":0.0017,"nx":28,"ny":28,"refTime":"2024-08-27T09:00:00:Z","depth":0,"parameterNumber":3,"parameterNumberName":"V-component_of_WINDS"},"data":[0,0,0,0,0,0,0,0,0,0,0,0,0,0,0,0,0,0,0,0,0,0,0,0,0,0,0,0,0,0,0,0,0,0,0,0,0,0,0,0,0,0,0,0,0,0,0,0,0,0,0,0,0,0,0,0,0,0,-0.7056,-0.7055,0,-0.6977,-0.6976,-0.6975,-0.6983,-0.6984,-0.6985,-0.6987,-0.6899,-0.6896,-0.6892,0,0,0,0,0,0,0,0,0,0,0,0,0,-0.7204,-0.7202,-0.7056,-0.7055,-0.7054,-0.6977,-0.6976,-0.6975,-0.6983,-0.6984,-0.6986,-0.6987,-0.69,-0.6896,-0.6892,0,0,0,0,0,0,0,0,0,0,0,0,0,-0.7134,-0.7201,-0.7056,-0.7049,-0.7047,-0.6977,-0.6976,-0.6975,-0.6982,-0.6984,-0.6986,-0.6988,-0.6902,-0.6897,-0.6892,-0.6822,0,0,-0.6876,-0.6873,0,0,0,0,0,0,0,0,-0.7138,-0.7129,-0.7051,-0.7049,-0.7047,-0.6992,-0.6996,-0.6923,-0.6982,-0.7007,-0.6987,-0.6989,-0.6928,-0.6921,-0.6902,-0.6818,-0.6814,-0.6875,-0.6872,-0.687,-0.6868,0,0,0,0,0,0,0,-0.7143,-0.7132,-0.7024,-0.7049,-0.7047,-0.7046,-0.7038,-0.6983,-0.6958,-0.7005,-0.7005,-0.6996,-0.6927,-0.6907,-0.69,-0.6813,-0.6875,-0.6871,-0.6867,-0.6865,-0.6663,-0.6661,0,0,0,0,0,0,-0.7151,-0.7136,-0.7027,-0.7022,-0.7098,-0.7042,-0.7033,-0.7008,-0.6958,-0.6953,-0.6995,-0.6997,-0.6915,-0.6906,-0.6897,-0.6809,-0.687,-0.6865,-0.6862,-0.6665,-0.6663,-0.666,0,0,0,0,0,0,-0.7154,-0.7141,-0.703,-0.7079,-0.7065,-0.7038,-0.7009,-0.7005,-0.6985,-0.6951,-0.6946,-0.6979,-0.6916,-0.6904,-0.684,-0.6806,-0.6863,-0.6858,-0.6668,-0.6664,-0.6661,-0.6635,0,0,0,0,0,0,-0.7158,-0.7142,-0.7118,-0.7079,-0.7062,-0.6977,-0.7007,-0.7002,-0.6976,-0.6978,-0.6934,-0.6929,-0.6916,-0.6848,-0.6835,-0.68,-0.6854,-0.6671,-0.6666,-0.6662,-0.6639,-0.6631,-0.6625,0,0,0,0,0,-0.7163,-0.7113,-0.7116,-0.7103,-0.7032,-0.6975,-0.6966,-0.6955,-0.6974,-0.6947,-0.6925,-0.693,-0.6812,-0.6841,-0.6827,-0.679,-0.6673,-0.6668,-0.6663,-0.6642,-0.6632,-0.6625,0,0,0,0,0,0,-0.7147,-0.7108,-0.7111,-0.7047,-0.7015,-0.6977,-0.6943,-0.6946,-0.6906,-0.6909,-0.6895,-0.6885,-0.6819,-0.6798,-0.6831,-0.6717,-0.6745,-0.6736,-0.6734,-0.6725,-0.6718,-0.6723,-0.6849,0,0,0,0,0,-0.7136,-0.7096,-0.7063,-0.7009,-0.6993,-0.6971,-0.6946,-0.694,-0.6905,-0.6891,-0.6864,-0.6828,-0.6782,-0.6753,-0.6709,-0.6636,-0.6624,-0.6603,-0.6596,-0.659,-0.6583,-0.6538,-0.6527,-0.6644,-0.6644,-0.6644,0,0,-0.7113,-0.7086,-0.7062,-0.7005,-0.698,-0.6935,-0.6959,-0.6913,-0.6878,-0.6883,-0.6821,-0.6799,-0.6758,-0.6688,-0.6656,-0.6668,-0.6548,-0.6584,-0.658,-0.6575,-0.6532,-0.6521,-0.6511,-0.664,-0.6641,-0.6641,0,0,-0.7047,-0.7025,-0.6976,-0.6949,-0.6911,-0.6896,-0.6884,-0.6845,-0.6831,-0.6769,-0.6771,-0.6729,-0.6652,-0.6621,-0.6595,-0.6514,-0.6516,-0.65,-0.6463,-0.642,-0.641,-0.6402,-0.637,-0.6359,-0.6493,-0.6493,-0.6493,0,-0.7022,-0.6959,-0.695,-0.6902,-0.6875,-0.6879,-0.6827,-0.6801,-0.6749,-0.6729,-0.6744,-0.6645,-0.6618,-0.6539,-0.6519,-0.6499,-0.6482,-0.6505,-0.6413,-0.6405,-0.6397,-0.6366,-0.6354,-0.6491,-0.6492,-0.6492,-0.6492,0,-0.6928,-0.6883,-0.6848,-0.6799,-0.6768,-0.6719,-0.6699,-0.6669,-0.6665,-0.6647,-0.6581,-0.6548,-0.6496,-0.6477,-0.6473,-0.6396,-0.6405,-0.6417,-0.6443,-0.6384,-0.6354,-0.6343,-0.6489,-0.6489,-0.649,-0.649,0,0,-0.685,-0.6796,-0.6783,-0.6759,-0.6715,-0.6679,-0.6627,-0.6578,-0.655,-0.6514,-0.6468,-0.6401,-0.6411,-0.6382,-0.6373,-0.6336,-0.6269,-0.6352,-0.635,-0.6335,-0.6178,-0.6168,-0.6155,-0.6271,-0.6269,-0.6267,-0.6181,0,-0.6778,-0.669,-0.6679,-0.6599,-0.6555,-0.6557,-0.6511,-0.6478,-0.6459,-0.6417,-0.6395,-0.6347,-0.6366,-0.6348,-0.6311,-0.6286,-0.6237,-0.6292,-0.6224,-0.6222,-0.6233,-0.614,-0.6129,-0.6049,-0.617,-0.6168,-0.6166,0,-0.6682,-0.6644,-0.656,-0.6519,-0.65,-0.646,-0.6412,-0.6373,-0.6333,-0.6322,-0.6288,-0.6283,-0.6226,-0.6256,-0.6175,-0.6212,-0.6184,-0.6167,-0.6164,-0.6155,-0.6189,-0.6125,-0.6024,-0.6011,-0.6149,-0.615,-0.6151,0,-0.663,-0.6557,-0.6496,-0.6476,-0.6428,-0.6399,-0.6377,-0.6339,-0.6309,-0.6266,-0.6246,-0.6197,-0.6169,-0.6129,-0.611,-0.6134,-0.6028,-0.6058,-0.6014,-0.6014,-0.599,-0.5991,-0.5879,-0.5976,-0.5976,-0.5977,-0.5977,0,-0.6549,-0.6497,-0.6472,-0.6434,-0.6374,-0.6361,-0.6301,-0.628,-0.6245,-0.6201,-0.6199,-0.6157,-0.6135,-0.6089,-0.6073,-0.6006,-0.5994,-0.598,-0.5976,-0.5979,-0.598,-0.5959,-0.5963,-0.5973,-0.5974,-0.5975,-0.5975,0,-0.648,-0.6462,-0.6395,-0.6355,-0.6343,-0.63,-0.6264,-0.6225,-0.6207,-0.615,-0.6136,-0.6106,-0.6051,-0.6028,-0.596,-0.5949,-0.5871,-0.5873,-0.5885,-0.5883,-0.5839,-0.5842,-0.5707,-0.5687,-0.58,-0.5799,-0.5798,0,-0.6429,-0.6389,-0.6344,-0.6315,-0.6292,-0.6245,-0.6215,-0.6199,-0.6166,-0.6116,-0.6082,-0.6028,-0.5983,-0.5894,-0.5863,-0.581,-0.5809,-0.5765,-0.58,-0.5803,-0.5804,-0.5805,-0.5799,-0.5758,-0.5756,-0.5756,-0.5755,0,-0.6338,-0.6331,-0.6288,-0.624,-0.6204,-0.6165,-0.6128,-0.6103,-0.6081,-0.6044,-0.5988,-0.5953,-0.5883,-0.5827,-0.5772,-0.5746,-0.5744,-0.5744,-0.573,-0.5731,-0.5739,-0.5731,-0.5864,-0.5747,-0.5748,-0.5748,-0.5749,-0.5749,-0.6274,-0.6237,-0.6199,-0.615,-0.612,-0.6084,-0.6045,-0.6022,-0.5976,-0.5919,-0.5912,-0.585,-0.5807,-0.5733,-0.5705,-0.5654,-0.5665,-0.5646,-0.5641,-0.5636,-0.5631,-0.5749,-0.5644,-0.5645,-0.5645,-0.5645,-0.5645,0,-0.6181,-0.6156,-0.6111,-0.6059,-0.6019,-0.6024,-0.5982,-0.5947,-0.5894,-0.5856,-0.5811,-0.5745,-0.569,-0.5655,-0.5598,-0.5564,-0.5562,-0.555,-0.555,-0.5544,-0.5627,-0.5643,-0.5552,-0.5552,-0.5552,-0.5552,-0.5552,-0.5552,-0.6128,-0.6064,-0.6051,-0.5971,-0.5946,-0.5888,-0.5862,-0.5828,-0.5796,-0.5723,-0.5678,-0.5656,-0.5617,-0.5557,-0.5505,-0.5496,-0.5474,-0.546,-0.5451,-0.5529,-0.5538,-0.5547,-0.5562,-0.5456,-0.5456,-0.5372,-0.5371,-0.5371]}]]